TimeEDT,TemperatureF,Dew PointF,Humidity,Sea Level PressureIn,VisibilityMPH,Wind Direction,Wind SpeedMPH,Gust SpeedMPH,PrecipitationIn,Events,Conditions,WindDirDegrees,DateUTC
12:53 AM,63.0,62.1,97,29.85,3.0,West,3.5,-,N/A,,Overcast,270,2013-06-11 04:53:00
1:53 AM,62.1,61.0,96,29.85,4.0,NW,5.8,-,N/A,,Overcast,320,2013-06-11 05:53:00
2:21 AM,62.6,60.8,94,29.86,2.0,WNW,3.5,-,N/A,,Overcast,300,2013-06-11 06:21:00
2:28 AM,62.6,60.8,94,29.86,1.5,WNW,3.5,-,N/A,,Overcast,300,2013-06-11 06:28:00
2:53 AM,61.0,61.0,100,29.86,1.5,West,3.5,-,N/A,,Overcast,280,2013-06-11 06:53:00
3:05 AM,60.8,60.8,100,29.86,2.0,West,3.5,-,N/A,,Overcast,260,2013-06-11 07:05:00
3:20 AM,60.8,60.8,100,29.87,4.0,West,3.5,-,N/A,,Overcast,270,2013-06-11 07:20:00
3:53 AM,60.1,57.9,93,29.87,5.0,WNW,3.5,-,N/A,,Overcast,290,2013-06-11 07:53:00
4:53 AM,60.1,59.0,96,29.88,5.0,WNW,6.9,-,N/A,,Overcast,290,2013-06-11 08:53:00
5:53 AM,60.1,59.0,96,29.89,5.0,WNW,5.8,-,N/A,,Overcast,290,2013-06-11 09:53:00
6:01 AM,60.8,57.2,88,29.90,2.0,WNW,5.8,-,N/A,,Overcast,290,2013-06-11 10:01:00
6:44 AM,59.0,57.2,94,29.91,1.0,WNW,4.6,-,N/A,,Overcast,290,2013-06-11 10:44:00
6:53 AM,59.0,57.9,96,29.92,1.0,WNW,4.6,-,N/A,,Overcast,300,2013-06-11 10:53:00
7:33 AM,60.8,59.0,94,29.92,2.0,Calm,Calm,-,N/A,,Overcast,0,2013-06-11 11:33:00
7:53 AM,60.1,59.0,96,29.92,2.5,WNW,3.5,-,N/A,,Overcast,300,2013-06-11 11:53:00
8:53 AM,62.1,60.1,93,29.93,2.5,West,5.8,-,N/A,,Overcast,280,2013-06-11 12:53:00
9:23 AM,64.4,60.8,88,29.94,5.0,Calm,Calm,-,N/A,,Mostly Cloudy,0,2013-06-11 13:23:00
9:53 AM,64.9,61.0,87,29.94,9.0,Variable,3.5,-,N/A,,Mostly Cloudy,0,2013-06-11 13:53:00
10:19 AM,66.2,60.8,83,29.94,9.0,Variable,4.6,-,N/A,,Scattered Clouds,0,2013-06-11 14:19:00
10:53 AM,70.0,63.0,78,29.93,10.0,WNW,5.8,-,N/A,,Partly Cloudy,300,2013-06-11 14:53:00
11:53 AM,73.9,64.0,71,29.93,10.0,Variable,4.6,-,N/A,,Partly Cloudy,0,2013-06-11 15:53:00
12:53 PM,75.9,63.0,64,29.92,7.0,Calm,Calm,-,N/A,,Scattered Clouds,0,2013-06-11 16:53:00
1:53 PM,80.1,64.0,58,29.91,10.0,SW,8.1,-,N/A,,Mostly Cloudy,220,2013-06-11 17:53:00
2:53 PM,81.0,64.0,56,29.89,10.0,West,8.1,-,N/A,,Partly Cloudy,270,2013-06-11 18:53:00
3:53 PM,82.0,64.9,56,29.87,10.0,Variable,5.8,-,N/A,,Scattered Clouds,0,2013-06-11 19:53:00
4:53 PM,81.0,64.0,56,29.86,10.0,WSW,10.4,-,N/A,,Partly Cloudy,250,2013-06-11 20:53:00
5:53 PM,82.0,63.0,52,29.86,10.0,West,9.2,-,N/A,,Clear,270,2013-06-11 21:53:00
6:53 PM,78.1,60.1,54,29.86,10.0,WNW,10.4,-,N/A,,Partly Cloudy,290,2013-06-11 22:53:00
7:53 PM,79.0,62.1,56,29.85,10.0,West,4.6,-,N/A,,Clear,280,2013-06-11 23:53:00
8:53 PM,75.0,63.0,66,29.86,10.0,NW,4.6,-,N/A,,Clear,320,2013-06-12 00:53:00
9:53 PM,72.0,63.0,73,29.87,10.0,Calm,Calm,-,N/A,,Clear,0,2013-06-12 01:53:00
10:53 PM,69.1,64.0,84,29.88,10.0,Calm,Calm,-,N/A,,Clear,0,2013-06-12 02:53:00
11:53 PM,66.9,63.0,87,29.87,10.0,Calm,Calm,-,N/A,,Clear,0,2013-06-12 03:53:00